Portada
METAR-TAF:

METAR-TAF

Aeropuertos :

La Gomera, España

Aeropuerto de La Gomera

latitud: 28-01-47N, longitud: 017-12-53W, altitud: 218 m

Observación

El informe se hizo hace 21 minutos, a las 10:30 UTC
Viento 4 kt del sur-suroeste, variando entre sur-sureste y oeste-suroeste
Temperatura 22°C
Humedad 73%
Presión 1017 hPa
Visibilidad 10 km o más
Escasas nubes a una altura de 3000 ft

METAR: GCGM 181030Z 20004KT 160V250 9999 FEW030 22/17 Q1017 RMK R09/VRB02KT ARP/18003KT 130V220

Hora: 11:51 (10:51 UTC)


TAF: falta

Observaciones y pronósticos meteorológicos de más de 4000 aeropuertos (mensajes METAR y TAF).

Los puntos amarillos y rojos representan las estaciones disponibles.

Ponga el ratón en el punto deseado para ver el nombre de la estación.

Haga clic para ver las observaciones y los pronósticos meteorológicos.

Para cambiar el mapa : haga clic en los botones verdes con una cruz de color negro para hacer un zoom, en el botón verde con un guión para alejar o en las flechas verdes para mapas adyacentes.


METAR-TAF: